STARLINK-1080, 44961

Orbit data source: Space-Track

STARLINK-1080, 44961 is a payload satellite owned by SpaceX/Seattle (US) in LEO that was launched on Tue, 07 Jan 2020 UTC via an FALCON 9 launch vehicle from the Air Force Eastern Test Range (AFETR). Payload-class satellites include a variety of spacecraft equipped with specific instruments for various scientific and technological missions. These include communications satellites like Starlink; space stations such as the ISS; scientific satellites like the Hubble; Earth observation satellites from companies like Planet Labs, Umbra, and HawkEye 360; GPS; miniature CubeSats for education and research; and military/defense satellites.

Loading next visibility...
Identifier
44961, 2020-001AZ
Orbit
LEO
Country
Flag of USUS
Related business
Manufacturer
SpaceX/Seattle
Mission
Partially operational Commercial Communications
Bus & Motor
STARLINK, Unknown motor
Mass
260 kg wet, ~248 kg dry
Launch date (UTC)
2020-01-07 (6 years ago)
Launch vehicle
FALCON 9
Launch site
Air Force Eastern Test Range (AFETR)
Object type
Payload
Rocket body
Debris
Shape & HBR
Box + 1 Pan, 10.1 m
Radar Cross Section
13.562 m², Large (>1 m²)

Expand to show TLE details & history
Last TLE update: 2 days ago

TLE from 2 days ago
0 STARLINK-1080
1 44961U 20001AZ  26171.36313249  .00048333  00000-0  41643-3 0  9997
2 44961  53.0442 150.0468 0003150  62.4199 297.7137 15.68814530356672
Epoch: 2026-06-20T08:42Z
TLE epoch observation values (Epoch: 2026-06-20T08:42:54.647Z)
Latitude
0.00003°
Longitude
110.74029°
Altitude
362.206 km
Speed
7.694 km/s
True Right ascension
10h 00m 11s
True Declination
0° 00' 00"
Sunlit
Object was in daylight at epoch
Visualization orbit readout
Latitude
Unknown
Longitude
Unknown
Altitude
Unknown
Speed
Unknown
Apparent Right ascension
Unknown
Apparent Declination
Unknown
Sunlit
N/A
Visualization observer readout
Local Sidereal Time
22:00:34
Azimuth
Unknown
Elevation
Unknown
Doppler factor
Unknown
Orbital elements
Apogee altitude
364.693 km
Perigee altitude
360.447 km
Semi-major axis
6,740.707 km
Eccentricity
0.00032
Inclination
53.0442°
RAAN
150.0468°
Arg. of periapsis
62.4199°
True anomaly
297.68174°
Mean anomaly
297.7137°
Eccentric anomaly
297.69772°
Mean motion
3.9218 °/min
Orbital period
91.79 mins
BSTAR
0.00041643
Loading maneuver chart data...
Computing Atmospheric mass density...

Documentation

Showing up to 5 results
|